Location: Unspecified
(0.0000°N, 0.0000°E)
Time: 03:08:30
(UTC+00:00)

Vanguard 2 Rocket - All Passes

Search period start: 03 March 2015 00:00
Search period end: 13 March 2015 00:00
Orbit: 554 x 3334 km, 32.9° (Epoch: 01 March)

Date Brightness Start Highest point End Pass type
(mag) Time Alt. Az. Time Alt. Az. Time Alt. Az.
03 Mar - 00:07:30 10° SW 00:13:51 13° SSW 00:18:18 10° S visible
03 Mar - 07:00:44 10° SW 07:04:46 57° SE 07:08:46 10° ENE daylight
03 Mar - 09:15:55 10° NW 09:18:14 14° NNW 09:20:44 10° N daylight
03 Mar - 16:01:55 10° NNW 16:14:18 31° NNE 16:31:08 10° E daylight
03 Mar - 18:15:34 10° NW 18:33:53 73° NE 18:53:39 10° ESE visible
03 Mar - 20:33:36 10° WNW 20:53:24 54° SW 21:09:30 10° SE visible
03 Mar - 23:00:19 10° WSW 23:12:51 20° SSW 23:21:41 10° SSE visible
04 Mar - 06:02:36 10° SSW 06:06:28 27° SSE 06:09:51 10° E daylight
04 Mar - 08:16:16 10° W 08:19:27 22° NNW 08:23:01 10° NNE daylight
04 Mar - 15:03:59 10° NNW 15:13:08 21° NNE 15:26:08 10° ENE daylight
04 Mar - 17:16:12 10° NW 17:32:22 57° NE 17:52:20 10° ESE daylight
04 Mar - 19:32:11 10° WNW 19:51:51 70° SW 20:10:10 10° SE visible
04 Mar - 21:55:08 10° W 22:11:36 29° SSW 22:23:45 10° SSE visible
05 Mar - 05:04:36 10° SSW 05:07:45 16° SSE 05:10:30 10° ESE visible
05 Mar - 07:17:10 10° WSW 07:21:07 47° NW 07:25:02 10° NE daylight
05 Mar - 14:07:14 10° N 14:12:11 13° NNE 14:19:15 10° NE daylight
05 Mar - 16:17:27 10° NNW 16:31:07 43° NE 16:49:53 10° E daylight
05 Mar - 18:31:44 10° NW 18:50:13 87° SW 19:10:08 10° SE visible
05 Mar - 20:51:32 10° W 21:10:06 40° SSW 21:25:09 10° SSE visible
05 Mar - 23:21:43 10° SW 23:30:35 15° SSW 23:37:00 10° S visible
06 Mar - 04:06:51 10° S 04:08:36 11° SSE 04:10:20 10° SE visible
06 Mar - 06:18:19 10° SW 06:22:58 74° SE 06:26:51 10° ENE daylight
06 Mar - 15:19:17 10° NNW 15:30:11 30° NNE 15:46:07 10° E daylight
06 Mar - 17:32:04 10° NW 17:48:43 76° NE 18:09:18 10° ESE daylight
06 Mar - 19:49:21 10° WNW 20:08:25 52° SSW 20:25:58 10° SE visible
06 Mar - 22:15:15 10° WSW 22:29:03 21° SSW 22:39:18 10° SSE visible
07 Mar - 05:19:31 10° SW 05:24:37 36° SSE 05:28:25 10° E visible
07 Mar - 07:34:45 10° WNW 07:37:33 17° NNW 07:40:15 10° N daylight
07 Mar - 14:21:52 10° N 14:29:33 20° NNE 14:40:53 10° ENE daylight
07 Mar - 16:33:06 10° NW 16:47:31 58° NE 17:07:35 10° ESE daylight
07 Mar - 18:48:21 10° WNW 19:06:39 67° SW 19:26:10 10° SE visible
07 Mar - 21:10:29 10° W 21:27:16 29° SSW 21:40:45 10° SSE visible
07 Mar - 23:43:29 10° SSW 23:48:46 12° SSW 23:52:47 10° S visible
08 Mar - 04:20:38 10° SSW 04:25:48 23° SSE 04:29:38 10° ESE visible
08 Mar - 06:34:58 10° WSW 06:39:16 38° NW 06:42:55 10° NNE daylight
08 Mar - 13:26:29 10° NNE 13:29:08 11° NNE 13:33:11 10° NE daylight
08 Mar - 15:34:43 10° NNW 15:46:45 43° NE 16:04:48 10° ESE daylight
08 Mar - 17:48:18 10° WNW 18:05:02 83° SW 18:25:42 10° SE daylight
08 Mar - 20:07:20 10° W 20:25:20 39° SSW 20:41:38 10° SSE visible
08 Mar - 22:36:18 10° SW 22:47:02 16° SSW 22:55:11 10° SSE visible
09 Mar - 03:21:30 10° SSW 03:26:33 17° SSE 03:30:27 10° ESE visible
09 Mar - 05:35:28 10° SW 05:41:06 88° NW 05:45:08 10° NE visible
09 Mar - 14:36:57 10° NNW 14:46:22 29° NE 15:00:52 10° E daylight
09 Mar - 16:49:01 10° NW 17:03:46 78° NE 17:24:28 10° ESE daylight
09 Mar - 19:05:35 10° WNW 19:23:23 50° SSW 19:41:57 10° SE visible
09 Mar - 21:30:30 10° WSW 21:45:00 22° SSW 21:56:32 10° SSE visible
10 Mar - 00:03:06 10° SSW 00:07:11 11° S 00:10:36 10° S visible
10 Mar - 02:21:51 10° SSW 02:26:47 15° SSE 02:30:49 10° SE visible
10 Mar - 04:36:01 10° SW 04:42:41 49° SSE 04:47:02 10° ENE visible
10 Mar - 06:52:53 10° WNW 06:55:33 15° NW 06:57:52 10° N daylight
10 Mar - 13:40:02 10° N 13:46:16 18° NE 13:55:34 10° ENE daylight
10 Mar - 15:50:22 10° NW 16:02:59 60° NE 16:22:26 10° ESE daylight
10 Mar - 18:04:59 10° WNW 18:21:33 63° SSW 18:41:40 10° SE visible
10 Mar - 20:26:17 10° W 20:42:47 29° SSW 20:57:20 10° SSE visible
10 Mar - 22:57:07 10° SW 23:05:27 14° S 23:12:01 10° SSE visible
11 Mar - 01:21:21 10° SSW 01:26:30 13° S 01:30:50 10° SE night (unlit)
11 Mar - 03:36:23 10° SW 03:43:46 32° SSE 03:48:34 10° E visible
11 Mar - 05:52:18 10° WSW 05:57:18 34° NW 06:01:02 10° NNE daylight
11 Mar - 14:52:18 10° NNW 15:02:43 42° NE 15:19:28 10° ESE daylight
11 Mar - 17:05:18 10° WNW 17:20:06 79° SW 17:40:47 10° SE daylight
11 Mar - 19:23:37 10° W 19:40:32 37° SSW 19:57:37 10° SSE visible
11 Mar - 21:51:12 10° SW 22:03:15 18° SSW 22:12:53 10° SSE visible
12 Mar - 00:19:30 10° SSW 00:25:35 13° S 00:30:42 10° SSE visible
12 Mar - 02:36:25 10° SSW 02:44:20 24° SSE 02:49:42 10° ESE visible
12 Mar - 04:52:09 10° WSW 04:59:07 75° NW 05:03:32 10° NE visible
12 Mar - 13:54:52 10° NNW 14:02:52 28° NE 14:15:33 10° E daylight
12 Mar - 16:06:19 10° NW 16:19:10 81° NE 16:39:15 10° ESE daylight
12 Mar - 18:22:18 10° W 18:38:28 47° SSW 18:57:25 10° SE visible
12 Mar - 20:46:11 10° WSW 21:00:47 22° SSW 21:13:21 10° SSE visible
12 Mar - 23:16:04 10° SSW 23:24:01 14° S 23:30:33 10° SSE visible
